START_TIME,STEP,MOV.,M34,t_acc.,L5,t_acc.,L18,t_acc.,L14,t_acc.
1981-08-25 21:00:25.640 ,5,0,25.,12.0,0.,12.0,0.,12.0,0.,12.0
1981-08-25 21:00:37.640 ,5,0,21.,12.0,0.,12.0,0.,12.0,0.,12.0
1981-08-25 21:00:49.640 ,6,1,24.,12.0,0.,12.0,0.,12.0,0.,12.0
1981-08-25 21:01:01.640 ,6,1,17.,12.0,0.,12.0,0.,12.0,0.,12.0
1981-08-25 21:01:13.640 ,6,0,28.,12.0,0.,12.0,0.,12.0,0.,12.0
1981-08-25 21:01:25.640 ,6,0,28.,12.0,0.,12.0,0.,12.0,0.,12.0
1981-08-25 21:01:37.640 ,7,1,21.,12.0,0.,12.0,0.,12.0,0.,12.0
1981-08-25 21:01:49.640 ,7,1,7.,12.0,0.,12.0,0.,12.0,0.,12.0
1981-08-25 21:02:01.640 ,7,0,0.,12.0,0.,12.0,0.,12.0,0.,12.0
1981-08-25 21:02:13.640 ,7,0,0.,12.0,0.,12.0,0.,12.0,0.,12.0
1981-08-25 21:02:25.630 ,7,1,0.,12.0,0.,12.0,0.,12.0,0.,12.0
1981-08-25 21:02:37.640 ,7,1,0.,12.0,0.,12.0,0.,12.0,0.,12.0
1981-08-25 21:02:49.630 ,7,0,1.,12.0,0.,12.0,0.,12.0,0.,12.0
1981-08-25 21:03:01.640 ,7,0,2.,12.0,0.,12.0,0.,12.0,0.,12.0
1981-08-25 21:03:13.630 ,6,1,0.,12.0,0.,12.0,0.,12.0,0.,12.0
1981-08-25 21:03:25.640 ,6,1,15.,12.0,0.,12.0,0.,12.0,0.,12.0
1981-08-25 21:03:37.630 ,6,0,25.,12.0,0.,12.0,0.,12.0,0.,12.0
1981-08-25 21:03:49.640 ,6,0,24.,12.0,0.,12.0,0.,12.0,0.,12.0
1981-08-25 21:04:01.630 ,5,1,15.,12.0,0.,12.0,0.,12.0,0.,12.0
1981-08-25 21:04:13.640 ,5,1,24.,12.0,0.,12.0,0.,12.0,0.,12.0
1981-08-25 21:04:25.640 ,5,0,21.,12.0,0.,12.0,0.,12.0,0.,12.0
1981-08-25 21:04:37.640 ,5,0,26.,12.0,0.,12.0,0.,12.0,0.,12.0
1981-08-25 21:04:49.640 ,4,1,21.,12.0,0.,12.0,0.,12.0,0.,12.0
1981-08-25 21:05:01.640 ,4,1,27.,12.0,0.,12.0,0.,12.0,0.,12.0
1981-08-25 21:05:13.640 ,4,0,21.,12.0,0.,12.0,0.,12.0,0.,12.0
1981-08-25 21:05:25.640 ,4,0,14.,12.0,0.,12.0,0.,12.0,0.,12.0
1981-08-25 21:05:37.640 ,3,1,17.,12.0,0.,12.0,0.,12.0,0.,12.0
1981-08-25 21:05:49.640 ,3,1,20.,12.0,0.,12.0,0.,12.0,0.,12.0
1981-08-25 21:06:01.640 ,3,0,23.,12.0,0.,12.0,0.,12.0,0.,12.0
1981-08-25 21:06:13.640 ,3,0,22.,12.0,0.,12.0,0.,12.0,0.,12.0
1981-08-25 21:06:25.640 ,2,1,20.,12.0,0.,12.0,0.,12.0,0.,12.0
1981-08-25 21:06:37.640 ,2,1,31.,12.0,0.,12.0,0.,12.0,0.,12.0
1981-08-25 21:06:49.640 ,2,0,24.,12.0,0.,12.0,0.,12.0,0.,12.0
1981-08-25 21:07:01.640 ,2,0,21.,12.0,0.,12.0,0.,12.0,0.,12.0
1981-08-25 21:07:13.640 ,1,1,25.,12.0,0.,12.0,0.,12.0,0.,12.0
1981-08-25 21:07:25.640 ,1,1,19.,12.0,0.,12.0,0.,12.0,0.,12.0
1981-08-25 21:07:37.640 ,1,0,15.,12.0,0.,12.0,0.,12.0,0.,12.0
1981-08-25 21:07:49.640 ,1,0,18.,12.0,0.,12.0,0.,12.0,0.,12.0
1981-08-25 21:08:01.640 ,0,1,26.,12.0,0.,12.0,0.,12.0,0.,12.0
1981-08-25 21:08:13.640 ,0,1,14.,12.0,0.,12.0,0.,12.0,0.,12.0
1981-08-25 21:08:25.640 ,0,0,14.,12.0,0.,12.0,0.,12.0,0.,12.0
1981-08-25 21:08:37.640 ,0,0,24.,12.0,0.,12.0,0.,12.0,0.,12.0
1981-08-25 21:08:49.640 ,0,1,25.,12.0,0.,12.0,0.,12.0,0.,12.0
1981-08-25 21:09:01.640 ,0,1,21.,12.0,0.,12.0,0.,12.0,0.,12.0
1981-08-25 21:09:13.640 ,0,0,22.,12.0,0.,12.0,0.,12.0,0.,12.0
1981-08-25 21:09:25.640 ,0,0,11.,12.0,0.,12.0,0.,12.0,0.,12.0
1981-08-25 21:09:37.640 ,1,1,17.,12.0,0.,12.0,0.,12.0,0.,12.0
1981-08-25 21:09:49.640 ,1,1,15.,12.0,0.,12.0,0.,12.0,0.,12.0
1981-08-25 21:10:01.640 ,1,0,31.,12.0,0.,12.0,0.,12.0,0.,12.0
1981-08-25 21:10:13.640 ,1,0,26.,12.0,0.,12.0,0.,12.0,0.,12.0
1981-08-25 21:10:25.640 ,2,1,21.,12.0,0.,12.0,0.,12.0,0.,12.0
1981-08-25 21:10:37.640 ,2,1,27.,12.0,0.,12.0,0.,12.0,0.,12.0
1981-08-25 21:10:49.640 ,2,0,21.,12.0,0.,12.0,0.,12.0,0.,12.0
1981-08-25 21:11:01.640 ,2,0,30.,12.0,0.,12.0,0.,12.0,0.,12.0
1981-08-25 21:11:13.640 ,3,1,36.,12.0,0.,12.0,0.,12.0,0.,12.0
1981-08-25 21:11:25.640 ,3,1,21.,12.0,0.,12.0,0.,12.0,0.,12.0
1981-08-25 21:11:37.640 ,3,0,16.,12.0,0.,12.0,0.,12.0,0.,12.0
1981-08-25 21:11:49.640 ,3,0,27.,12.0,0.,12.0,0.,12.0,0.,12.0
1981-08-25 21:12:01.640 ,4,1,26.,12.0,0.,12.0,0.,12.0,0.,12.0
1981-08-25 21:12:13.640 ,4,1,25.,12.0,0.,12.0,0.,12.0,0.,12.0
1981-08-25 21:12:25.640 ,4,0,22.,12.0,0.,12.0,0.,12.0,0.,12.0
1981-08-25 21:12:37.640 ,4,0,27.,12.0,0.,12.0,0.,12.0,0.,12.0
1981-08-25 21:12:49.640 ,5,1,25.,12.0,0.,12.0,0.,12.0,0.,12.0
1981-08-25 21:13:01.640 ,5,1,27.,12.0,0.,12.0,0.,12.0,0.,12.0
1981-08-25 21:13:13.640 ,5,0,31.,12.0,0.,12.0,0.,12.0,0.,12.0
1981-08-25 21:13:25.640 ,5,0,27.,12.0,0.,12.0,0.,12.0,0.,12.0
1981-08-25 21:13:37.630 ,6,1,18.,12.0,0.,12.0,0.,12.0,0.,12.0
1981-08-25 21:13:49.630 ,6,1,10.,12.0,0.,12.0,0.,12.0,0.,12.0
1981-08-25 21:14:01.630 ,6,0,20.,12.0,0.,12.0,0.,12.0,0.,12.0
1981-08-25 21:14:13.630 ,6,0,14.,12.0,0.,12.0,0.,12.0,0.,12.0
1981-08-25 21:14:25.630 ,7,1,22.,12.0,0.,12.0,0.,12.0,0.,12.0
1981-08-25 21:14:37.630 ,7,1,13.,12.0,0.,12.0,0.,12.0,0.,12.0
1981-08-25 21:14:49.630 ,7,0,1.,12.0,0.,12.0,0.,12.0,0.,12.0
1981-08-25 21:15:01.630 ,7,0,1.,12.0,0.,12.0,0.,12.0,0.,12.0
1981-08-25 21:15:13.630 ,7,1,0.,12.0,0.,12.0,0.,12.0,0.,12.0
1981-08-25 21:15:25.630 ,7,1,0.,12.0,0.,12.0,0.,12.0,0.,12.0
1981-08-25 21:15:37.630 ,7,0,2.,12.0,0.,12.0,0.,12.0,0.,12.0
1981-08-25 21:15:49.630 ,7,0,0.,12.0,0.,12.0,0.,12.0,0.,12.0
1981-08-25 21:16:01.630 ,6,1,0.,12.0,0.,12.0,0.,12.0,0.,12.0
1981-08-25 21:16:13.630 ,6,1,21.,12.0,0.,12.0,0.,12.0,0.,12.0
1981-08-25 21:16:25.630 ,6,0,25.,12.0,0.,12.0,0.,12.0,0.,12.0
1981-08-25 21:16:37.630 ,6,0,21.,12.0,0.,12.0,0.,12.0,0.,12.0
1981-08-25 21:16:49.630 ,5,1,27.,12.0,0.,12.0,0.,12.0,0.,12.0
1981-08-25 21:17:01.630 ,5,1,28.,12.0,0.,12.0,0.,12.0,0.,12.0
1981-08-25 21:17:13.630 ,5,0,20.,12.0,0.,12.0,0.,12.0,0.,12.0
1981-08-25 21:17:25.630 ,5,0,21.,12.0,0.,12.0,0.,12.0,0.,12.0
1981-08-25 21:17:37.630 ,4,1,24.,12.0,0.,12.0,0.,12.0,0.,12.0
1981-08-25 21:17:49.630 ,4,1,25.,12.0,0.,12.0,0.,12.0,0.,12.0
1981-08-25 21:18:01.630 ,4,0,17.,12.0,0.,12.0,0.,12.0,0.,12.0
1981-08-25 21:18:13.630 ,4,0,25.,12.0,0.,12.0,0.,12.0,0.,12.0
1981-08-25 21:18:25.630 ,3,1,22.,12.0,0.,12.0,0.,12.0,0.,12.0
1981-08-25 21:18:37.630 ,3,1,22.,12.0,0.,12.0,0.,12.0,0.,12.0
1981-08-25 21:18:49.630 ,3,0,22.,12.0,0.,12.0,0.,12.0,0.,12.0
1981-08-25 21:19:01.630 ,3,0,20.,12.0,0.,12.0,0.,12.0,0.,12.0
1981-08-25 21:19:13.630 ,2,1,15.,12.0,0.,12.0,0.,12.0,0.,12.0
1981-08-25 21:19:25.630 ,2,1,21.,12.0,0.,12.0,0.,12.0,0.,12.0
1981-08-25 21:19:37.630 ,2,0,20.,12.0,0.,12.0,0.,12.0,0.,12.0
1981-08-25 21:19:49.630 ,2,0,26.,12.0,0.,12.0,0.,12.0,0.,12.0
1981-08-25 21:20:01.630 ,1,1,19.,12.0,0.,12.0,0.,12.0,0.,12.0
1981-08-25 21:20:13.630 ,1,1,16.,12.0,0.,12.0,0.,12.0,0.,12.0
1981-08-25 21:20:25.630 ,1,0,29.,12.0,0.,12.0,0.,12.0,0.,12.0
1981-08-25 21:20:37.630 ,1,0,25.,12.0,0.,12.0,0.,12.0,0.,12.0
1981-08-25 21:20:49.630 ,0,1,27.,12.0,0.,12.0,0.,12.0,0.,12.0
1981-08-25 21:21:01.630 ,0,1,20.,12.0,0.,12.0,0.,12.0,0.,12.0
1981-08-25 21:21:13.630 ,0,0,10.,12.0,0.,12.0,0.,12.0,0.,12.0
1981-08-25 21:21:25.630 ,0,0,23.,12.0,0.,12.0,0.,12.0,0.,12.0
1981-08-25 21:21:37.630 ,0,1,30.,12.0,0.,12.0,0.,12.0,0.,12.0
1981-08-25 21:21:49.630 ,0,1,28.,12.0,0.,12.0,0.,12.0,0.,12.0
1981-08-25 21:22:01.630 ,0,0,22.,12.0,0.,12.0,0.,12.0,0.,12.0
1981-08-25 21:22:13.630 ,0,0,21.,12.0,0.,12.0,0.,12.0,0.,12.0
1981-08-25 21:22:25.630 ,1,1,24.,12.0,0.,12.0,0.,12.0,0.,12.0
1981-08-25 21:22:37.630 ,1,1,24.,12.0,0.,12.0,0.,12.0,0.,12.0
1981-08-25 21:22:49.630 ,1,0,20.,12.0,0.,12.0,0.,12.0,0.,12.0
1981-08-25 21:23:01.630 ,1,0,32.,12.0,0.,12.0,0.,12.0,0.,12.0
1981-08-25 21:23:13.630 ,2,1,24.,12.0,0.,12.0,0.,12.0,0.,12.0
1981-08-25 21:23:25.630 ,2,1,16.,12.0,0.,12.0,0.,12.0,0.,12.0
1981-08-25 21:23:37.630 ,2,0,24.,12.0,0.,12.0,0.,12.0,0.,12.0
1981-08-25 21:23:49.630 ,2,0,31.,12.0,0.,12.0,0.,12.0,0.,12.0
1981-08-25 21:24:01.630 ,3,1,27.,12.0,0.,12.0,0.,12.0,0.,12.0
1981-08-25 21:24:13.630 ,3,1,25.,12.0,0.,12.0,0.,12.0,0.,12.0
1981-08-25 21:24:25.630 ,3,0,26.,12.0,0.,12.0,0.,12.0,0.,12.0
1981-08-25 21:24:37.630 ,3,0,31.,12.0,0.,12.0,0.,12.0,0.,12.0
1981-08-25 21:24:49.630 ,4,1,22.,12.0,0.,12.0,0.,12.0,0.,12.0
1981-08-25 21:25:01.630 ,4,1,28.,12.0,0.,12.0,0.,12.0,0.,12.0
1981-08-25 21:25:13.630 ,4,0,23.,12.0,0.,12.0,0.,12.0,0.,12.0
1981-08-25 21:25:25.630 ,4,0,22.,12.0,0.,12.0,0.,12.0,0.,12.0
1981-08-25 21:25:37.630 ,5,1,24.,12.0,0.,12.0,0.,12.0,0.,12.0
1981-08-25 21:25:49.630 ,5,1,31.,12.0,0.,12.0,0.,12.0,0.,12.0
1981-08-25 21:26:01.630 ,5,0,26.,12.0,0.,12.0,0.,12.0,0.,12.0
1981-08-25 21:26:13.630 ,5,0,31.,12.0,0.,12.0,0.,12.0,0.,12.0
1981-08-25 21:26:25.630 ,6,1,15.,12.0,0.,12.0,0.,12.0,0.,12.0
1981-08-25 21:26:37.630 ,6,1,19.,12.0,0.,12.0,0.,12.0,0.,12.0
1981-08-25 21:26:49.630 ,6,0,20.,12.0,0.,12.0,0.,12.0,0.,12.0
1981-08-25 21:27:01.630 ,6,0,24.,12.0,0.,12.0,0.,12.0,0.,12.0
1981-08-25 21:27:13.630 ,7,1,13.,12.0,0.,12.0,0.,12.0,0.,12.0
1981-08-25 21:27:25.630 ,7,1,11.,12.0,0.,12.0,0.,12.0,0.,12.0
1981-08-25 21:27:37.630 ,7,0,0.,12.0,0.,12.0,0.,12.0,0.,12.0
1981-08-25 21:27:49.630 ,7,0,0.,12.0,0.,12.0,0.,12.0,0.,12.0
1981-08-25 21:28:01.630 ,7,1,0.,12.0,0.,12.0,0.,12.0,0.,12.0
1981-08-25 21:28:13.630 ,7,1,0.,12.0,0.,12.0,0.,12.0,0.,12.0
1981-08-25 21:28:25.630 ,7,0,0.,12.0,0.,12.0,0.,12.0,0.,12.0
1981-08-25 21:28:37.630 ,7,0,0.,12.0,0.,12.0,0.,12.0,0.,12.0
1981-08-25 21:28:49.630 ,0,0,0.,12.0,0.,12.0,0.,12.0,0.,12.0
1981-08-25 21:29:01.630 ,0,0,,0,,0,,0,,0
1981-08-25 21:29:13.630 ,0,0,14.,12.0,0.,12.0,0.,12.0,0.,12.0
1981-08-25 21:29:25.630 ,0,0,,0,,0,,0,,0
1981-08-25 21:29:37.630 ,5,1,22.,12.0,0.,12.0,0.,12.0,0.,12.0
1981-08-25 21:29:49.630 ,5,1,32.,12.0,0.,12.0,0.,12.0,0.,12.0
1981-08-25 21:30:01.630 ,5,0,19.,12.0,0.,12.0,0.,12.0,0.,12.0
1981-08-25 21:30:13.630 ,5,0,22.,12.0,0.,12.0,0.,12.0,0.,12.0
1981-08-25 21:30:25.630 ,4,1,28.,12.0,0.,12.0,0.,12.0,0.,12.0
1981-08-25 21:30:37.630 ,4,1,24.,12.0,0.,12.0,0.,12.0,0.,12.0
1981-08-25 21:30:49.630 ,4,0,34.,12.0,0.,12.0,0.,12.0,0.,12.0
1981-08-25 21:31:01.630 ,4,0,20.,12.0,0.,12.0,0.,12.0,0.,12.0
1981-08-25 21:31:13.630 ,3,1,25.,12.0,0.,12.0,0.,12.0,0.,12.0
1981-08-25 21:31:25.630 ,3,1,28.,12.0,0.,12.0,0.,12.0,0.,12.0
1981-08-25 21:31:37.630 ,3,0,30.,12.0,0.,12.0,0.,12.0,0.,12.0
1981-08-25 21:31:49.630 ,3,0,22.,12.0,0.,12.0,0.,12.0,0.,12.0
1981-08-25 21:32:01.630 ,2,1,18.,12.0,0.,12.0,0.,12.0,0.,12.0
1981-08-25 21:32:13.630 ,2,1,31.,12.0,0.,12.0,0.,12.0,0.,12.0
1981-08-25 21:32:25.630 ,2,0,34.,12.0,0.,12.0,0.,12.0,0.,12.0
1981-08-25 21:32:37.630 ,2,0,23.,12.0,0.,12.0,0.,12.0,0.,12.0
1981-08-25 21:32:49.630 ,1,1,27.,12.0,0.,12.0,0.,12.0,0.,12.0
1981-08-25 21:33:01.630 ,1,1,23.,12.0,0.,12.0,0.,12.0,0.,12.0
1981-08-25 21:33:13.630 ,0,0,27.,12.0,0.,12.0,0.,12.0,0.,12.0
1981-08-25 21:33:25.630 ,0,0,22.,12.0,0.,12.0,0.,12.0,0.,12.0
1981-08-25 21:33:42.430 ,0,0,,0,,0,,0,,0
1981-08-25 21:33:54.430 ,0,0,,0,,0,,0,,0
1981-08-25 21:34:01.630 ,0,0,18.,12.0,0.,12.0,0.,12.0,0.,12.0
1981-08-25 21:34:13.630 ,0,0,22.,12.0,0.,12.0,0.,12.0,0.,12.0
1981-08-25 21:34:25.630 ,0,1,23.,12.0,0.,12.0,0.,12.0,0.,12.0
1981-08-25 21:34:37.630 ,0,1,20.,12.0,0.,12.0,0.,12.0,0.,12.0
1981-08-25 21:34:49.630 ,0,0,29.,12.0,0.,12.0,0.,12.0,0.,12.0
1981-08-25 21:35:01.630 ,0,0,20.,12.0,0.,12.0,0.,12.0,0.,12.0
1981-08-25 21:35:13.630 ,1,1,24.,12.0,0.,12.0,0.,12.0,0.,12.0
1981-08-25 21:35:25.630 ,1,1,21.,12.0,0.,12.0,0.,12.0,0.,12.0
1981-08-25 21:35:37.630 ,1,0,16.,12.0,0.,12.0,0.,12.0,0.,12.0
1981-08-25 21:35:49.630 ,1,0,25.,12.0,0.,12.0,0.,12.0,0.,12.0
1981-08-25 21:36:01.630 ,2,1,19.,12.0,0.,12.0,0.,12.0,0.,12.0
1981-08-25 21:36:13.630 ,2,1,31.,12.0,0.,12.0,0.,12.0,0.,12.0
1981-08-25 21:36:25.630 ,2,0,21.,12.0,1.,12.0,0.,12.0,0.,12.0
1981-08-25 21:36:37.630 ,2,0,29.,12.0,0.,12.0,0.,12.0,0.,12.0
1981-08-25 21:36:49.630 ,3,1,21.,12.0,0.,12.0,0.,12.0,0.,12.0
1981-08-25 21:37:01.630 ,3,1,21.,12.0,0.,12.0,0.,12.0,0.,12.0
1981-08-25 21:37:13.630 ,3,0,32.,12.0,0.,12.0,0.,12.0,0.,12.0
1981-08-25 21:37:25.630 ,3,0,16.,12.0,0.,12.0,0.,12.0,0.,12.0
1981-08-25 21:37:37.630 ,4,1,15.,12.0,0.,12.0,0.,12.0,0.,12.0
1981-08-25 21:37:49.630 ,4,1,20.,12.0,0.,12.0,0.,12.0,0.,12.0
1981-08-25 21:38:01.630 ,4,0,20.,12.0,0.,12.0,0.,12.0,0.,12.0
1981-08-25 21:38:13.630 ,4,0,32.,12.0,0.,12.0,0.,12.0,0.,12.0
1981-08-25 21:38:25.630 ,5,1,26.,12.0,0.,12.0,0.,12.0,0.,12.0
1981-08-25 21:38:37.630 ,5,1,20.,12.0,0.,12.0,0.,12.0,0.,12.0
1981-08-25 21:38:49.630 ,5,0,26.,12.0,0.,12.0,0.,12.0,0.,12.0
1981-08-25 21:39:01.630 ,5,0,17.,12.0,0.,12.0,0.,12.0,0.,12.0
1981-08-25 21:39:13.630 ,6,1,31.,12.0,0.,12.0,0.,12.0,0.,12.0
1981-08-25 21:39:25.630 ,6,1,25.,12.0,0.,12.0,0.,12.0,0.,12.0
1981-08-25 21:39:37.630 ,6,0,33.,12.0,0.,12.0,0.,12.0,0.,12.0
1981-08-25 21:39:49.630 ,6,0,18.,12.0,0.,12.0,0.,12.0,0.,12.0
1981-08-25 21:40:01.630 ,7,1,16.,12.0,0.,12.0,0.,12.0,0.,12.0
1981-08-25 21:40:13.630 ,7,1,4.,12.0,0.,12.0,0.,12.0,0.,12.0
1981-08-25 21:40:25.630 ,7,0,0.,12.0,0.,12.0,0.,12.0,0.,12.0
1981-08-25 21:40:37.630 ,7,0,0.,12.0,0.,12.0,0.,12.0,0.,12.0
1981-08-25 21:40:49.630 ,7,1,0.,12.0,0.,12.0,0.,12.0,0.,12.0
1981-08-25 21:41:01.630 ,7,1,1.,12.0,0.,12.0,0.,12.0,0.,12.0
1981-08-25 21:41:13.630 ,7,0,1.,12.0,0.,12.0,0.,12.0,0.,12.0
1981-08-25 21:41:25.630 ,7,0,0.,12.0,0.,12.0,0.,12.0,0.,12.0
1981-08-25 21:41:37.630 ,6,1,0.,12.0,0.,12.0,0.,12.0,0.,12.0
1981-08-25 21:41:49.630 ,6,1,16.,12.0,0.,12.0,0.,12.0,0.,12.0
1981-08-25 21:42:01.630 ,6,0,25.,12.0,0.,12.0,0.,12.0,0.,12.0
1981-08-25 21:42:13.630 ,6,0,25.,12.0,0.,12.0,0.,12.0,0.,12.0
1981-08-25 21:42:25.630 ,5,1,27.,12.0,0.,12.0,0.,12.0,0.,12.0
1981-08-25 21:42:37.630 ,5,1,30.,12.0,0.,12.0,0.,12.0,0.,12.0
1981-08-25 21:42:49.630 ,5,0,21.,12.0,0.,12.0,0.,12.0,0.,12.0
1981-08-25 21:43:01.630 ,5,0,20.,12.0,0.,12.0,0.,12.0,0.,12.0
1981-08-25 21:43:13.630 ,4,1,21.,12.0,0.,12.0,0.,12.0,0.,12.0
1981-08-25 21:43:25.630 ,4,1,16.,12.0,0.,12.0,0.,12.0,0.,12.0
1981-08-25 21:43:37.630 ,4,0,24.,12.0,0.,12.0,0.,12.0,0.,12.0
1981-08-25 21:43:49.630 ,4,0,14.,12.0,0.,12.0,0.,12.0,0.,12.0
1981-08-25 21:44:01.630 ,3,1,27.,12.0,0.,12.0,0.,12.0,0.,12.0
1981-08-25 21:44:13.630 ,3,1,16.,12.0,0.,12.0,0.,12.0,0.,12.0
1981-08-25 21:44:25.630 ,3,0,19.,12.0,0.,12.0,0.,12.0,0.,12.0
1981-08-25 21:44:37.630 ,3,0,20.,12.0,0.,12.0,0.,12.0,0.,12.0
1981-08-25 21:44:49.630 ,2,1,33.,12.0,0.,12.0,0.,12.0,0.,12.0
1981-08-25 21:45:01.630 ,2,1,26.,12.0,0.,12.0,0.,12.0,0.,12.0
1981-08-25 21:45:13.630 ,2,0,15.,12.0,0.,12.0,0.,12.0,0.,12.0
1981-08-25 21:45:25.630 ,2,0,28.,12.0,0.,12.0,0.,12.0,0.,12.0
1981-08-25 21:45:37.630 ,1,1,24.,12.0,1.,12.0,0.,12.0,0.,12.0
1981-08-25 21:45:49.630 ,1,1,24.,12.0,0.,12.0,0.,12.0,0.,12.0
1981-08-25 21:46:01.630 ,1,0,22.,12.0,0.,12.0,0.,12.0,0.,12.0
1981-08-25 21:46:13.630 ,1,0,20.,12.0,0.,12.0,0.,12.0,0.,12.0
1981-08-25 21:46:25.630 ,0,1,24.,12.0,0.,12.0,0.,12.0,0.,12.0
1981-08-25 21:46:37.630 ,0,1,21.,12.0,0.,12.0,0.,12.0,0.,12.0
1981-08-25 21:46:49.630 ,0,0,17.,12.0,0.,12.0,0.,12.0,0.,12.0
1981-08-25 21:47:01.630 ,0,0,22.,12.0,0.,12.0,0.,12.0,0.,12.0
1981-08-25 21:47:13.630 ,0,1,19.,12.0,0.,12.0,0.,12.0,0.,12.0
1981-08-25 21:47:25.630 ,0,1,23.,12.0,0.,12.0,0.,12.0,0.,12.0
1981-08-25 21:47:37.630 ,0,0,14.,12.0,0.,12.0,0.,12.0,0.,12.0
1981-08-25 21:47:49.630 ,0,0,17.,12.0,0.,12.0,0.,12.0,0.,12.0
1981-08-25 21:48:01.630 ,1,1,25.,12.0,0.,12.0,0.,12.0,0.,12.0
1981-08-25 21:48:13.630 ,1,1,24.,12.0,0.,12.0,0.,12.0,0.,12.0
1981-08-25 21:48:25.630 ,1,0,23.,12.0,0.,12.0,0.,12.0,0.,12.0
1981-08-25 21:48:37.630 ,1,0,20.,12.0,0.,12.0,0.,12.0,0.,12.0
1981-08-25 21:48:49.630 ,2,1,22.,12.0,0.,12.0,0.,12.0,0.,12.0
1981-08-25 21:49:01.630 ,2,1,26.,12.0,0.,12.0,0.,12.0,0.,12.0
1981-08-25 21:49:13.630 ,2,0,26.,12.0,0.,12.0,0.,12.0,0.,12.0
1981-08-25 21:49:25.630 ,2,0,35.,12.0,0.,12.0,0.,12.0,0.,12.0
1981-08-25 21:49:37.630 ,3,1,30.,12.0,0.,12.0,0.,12.0,0.,12.0
1981-08-25 21:49:49.630 ,3,1,17.,12.0,0.,12.0,0.,12.0,0.,12.0
1981-08-25 21:50:01.630 ,3,0,24.,12.0,0.,12.0,0.,12.0,0.,12.0
1981-08-25 21:50:13.630 ,3,0,26.,12.0,0.,12.0,0.,12.0,0.,12.0
1981-08-25 21:50:25.630 ,4,1,20.,12.0,0.,12.0,0.,12.0,0.,12.0
1981-08-25 21:50:37.630 ,4,1,18.,12.0,0.,12.0,0.,12.0,0.,12.0
1981-08-25 21:50:49.630 ,4,0,16.,12.0,0.,12.0,0.,12.0,0.,12.0
1981-08-25 21:51:01.630 ,4,0,23.,12.0,0.,12.0,0.,12.0,0.,12.0
1981-08-25 21:51:13.630 ,5,1,22.,12.0,0.,12.0,0.,12.0,0.,12.0
1981-08-25 21:51:25.630 ,5,1,18.,12.0,0.,12.0,0.,12.0,0.,12.0
1981-08-25 21:51:37.630 ,5,0,22.,12.0,0.,12.0,0.,12.0,0.,12.0
1981-08-25 21:51:49.630 ,5,0,29.,12.0,0.,12.0,0.,12.0,0.,12.0
1981-08-25 21:52:01.630 ,6,1,21.,12.0,0.,12.0,0.,12.0,0.,12.0
1981-08-25 21:52:13.630 ,6,1,25.,12.0,0.,12.0,0.,12.0,0.,12.0
1981-08-25 21:52:25.630 ,6,0,21.,12.0,0.,12.0,0.,12.0,0.,12.0
1981-08-25 21:52:37.630 ,6,0,29.,12.0,0.,12.0,0.,12.0,0.,12.0
1981-08-25 21:52:49.630 ,7,1,26.,12.0,0.,12.0,0.,12.0,0.,12.0
1981-08-25 21:53:01.630 ,7,1,5.,12.0,0.,12.0,0.,12.0,0.,12.0
1981-08-25 21:53:13.630 ,7,0,1.,12.0,0.,12.0,0.,12.0,0.,12.0
1981-08-25 21:53:25.630 ,7,0,0.,12.0,0.,12.0,0.,12.0,0.,12.0
1981-08-25 21:53:37.630 ,7,1,0.,12.0,0.,12.0,0.,12.0,0.,12.0
1981-08-25 21:53:49.630 ,7,1,0.,12.0,0.,12.0,0.,12.0,0.,12.0
1981-08-25 21:54:01.630 ,7,0,0.,12.0,0.,12.0,0.,12.0,0.,12.0
1981-08-25 21:54:13.630 ,7,0,1.,12.0,0.,12.0,0.,12.0,0.,12.0
1981-08-25 21:54:25.630 ,6,1,3.,12.0,0.,12.0,0.,12.0,0.,12.0
1981-08-25 21:54:37.630 ,6,1,11.,12.0,0.,12.0,0.,12.0,0.,12.0
1981-08-25 21:54:49.630 ,6,0,22.,12.0,0.,12.0,0.,12.0,0.,12.0
1981-08-25 21:55:01.630 ,6,0,17.,12.0,0.,12.0,0.,12.0,0.,12.0
1981-08-25 21:55:13.630 ,5,1,21.,12.0,0.,12.0,0.,12.0,0.,12.0
1981-08-25 21:55:25.630 ,5,1,16.,12.0,0.,12.0,0.,12.0,0.,12.0
1981-08-25 21:55:37.630 ,5,0,28.,12.0,0.,12.0,0.,12.0,0.,12.0
1981-08-25 21:55:49.630 ,5,0,17.,12.0,0.,12.0,0.,12.0,0.,12.0
1981-08-25 21:56:01.630 ,4,1,23.,12.0,0.,12.0,0.,12.0,0.,12.0
1981-08-25 21:56:13.630 ,4,1,27.,12.0,0.,12.0,0.,12.0,0.,12.0
1981-08-25 21:56:25.630 ,4,0,12.,12.0,0.,12.0,0.,12.0,0.,12.0
1981-08-25 21:56:37.630 ,4,0,23.,12.0,0.,12.0,0.,12.0,0.,12.0
1981-08-25 21:56:49.630 ,3,1,25.,12.0,0.,12.0,0.,12.0,0.,12.0
1981-08-25 21:57:01.630 ,3,1,24.,12.0,0.,12.0,0.,12.0,0.,12.0
1981-08-25 21:57:13.630 ,3,0,23.,12.0,0.,12.0,0.,12.0,0.,12.0
1981-08-25 21:57:25.630 ,3,0,18.,12.0,0.,12.0,0.,12.0,0.,12.0
1981-08-25 21:57:37.630 ,2,1,19.,12.0,0.,12.0,0.,12.0,0.,12.0
1981-08-25 21:57:49.630 ,2,1,30.,12.0,0.,12.0,0.,12.0,0.,12.0
1981-08-25 21:58:01.630 ,2,0,15.,12.0,0.,12.0,0.,12.0,0.,12.0
1981-08-25 21:58:13.630 ,2,0,24.,12.0,0.,12.0,0.,12.0,0.,12.0
1981-08-25 21:58:25.630 ,1,1,28.,12.0,0.,12.0,0.,12.0,0.,12.0
1981-08-25 21:58:37.630 ,1,1,27.,12.0,0.,12.0,0.,12.0,0.,12.0
1981-08-25 21:58:49.630 ,1,0,36.,12.0,0.,12.0,0.,12.0,0.,12.0
1981-08-25 21:59:01.630 ,1,0,28.,12.0,0.,12.0,0.,12.0,0.,12.0
1981-08-25 21:59:13.630 ,0,1,31.,12.0,0.,12.0,0.,12.0,0.,12.0
1981-08-25 21:59:25.630 ,0,1,19.,12.0,0.,12.0,0.,12.0,0.,12.0
1981-08-25 21:59:37.630 ,0,0,20.,12.0,0.,12.0,0.,12.0,0.,12.0
1981-08-25 21:59:49.630 ,0,0,19.,12.0,0.,12.0,0.,12.0,0.,12.0
1981-08-25 22:00:01.630 ,0,1,23.,12.0,0.,12.0,0.,12.0,0.,12.0
1981-08-25 22:00:13.630 ,0,1,24.,12.0,0.,12.0,0.,12.0,0.,12.0
1981-08-25 22:00:25.630 ,0,0,18.,12.0,0.,12.0,0.,12.0,0.,12.0
1981-08-25 22:00:37.630 ,0,0,15.,12.0,0.,12.0,0.,12.0,0.,12.0
1981-08-25 22:00:49.630 ,1,1,20.,12.0,0.,12.0,0.,12.0,0.,12.0
1981-08-25 22:01:01.630 ,1,1,26.,12.0,0.,12.0,0.,12.0,0.,12.0
1981-08-25 22:01:13.630 ,1,0,19.,12.0,0.,12.0,0.,12.0,0.,12.0
1981-08-25 22:01:25.630 ,1,0,27.,12.0,0.,12.0,0.,12.0,0.,12.0
1981-08-25 22:01:37.630 ,2,1,30.,12.0,0.,12.0,0.,12.0,0.,12.0
1981-08-25 22:01:49.630 ,2,1,28.,12.0,0.,12.0,0.,12.0,0.,12.0
1981-08-25 22:02:01.630 ,2,0,25.,12.0,0.,12.0,0.,12.0,0.,12.0
1981-08-25 22:02:13.630 ,2,0,26.,12.0,0.,12.0,0.,12.0,0.,12.0
1981-08-25 22:02:25.630 ,3,1,32.,12.0,0.,12.0,0.,12.0,0.,12.0
1981-08-25 22:02:37.630 ,3,1,21.,12.0,0.,12.0,0.,12.0,0.,12.0
1981-08-25 22:02:49.630 ,3,0,28.,12.0,0.,12.0,0.,12.0,0.,12.0
1981-08-25 22:03:01.630 ,3,0,19.,12.0,0.,12.0,0.,12.0,0.,12.0
1981-08-25 22:03:13.630 ,4,1,22.,12.0,0.,12.0,0.,12.0,0.,12.0
1981-08-25 22:03:25.630 ,4,1,22.,12.0,0.,12.0,0.,12.0,0.,12.0
1981-08-25 22:03:37.630 ,4,0,21.,12.0,0.,12.0,0.,12.0,0.,12.0
1981-08-25 22:03:49.630 ,4,0,28.,12.0,0.,12.0,0.,12.0,0.,12.0
1981-08-25 22:04:01.630 ,5,1,17.,12.0,0.,12.0,0.,12.0,0.,12.0
1981-08-25 22:04:13.630 ,5,1,25.,12.0,0.,12.0,0.,12.0,0.,12.0
1981-08-25 22:04:25.630 ,5,0,22.,12.0,0.,12.0,0.,12.0,0.,12.0
1981-08-25 22:04:37.630 ,5,0,29.,12.0,0.,12.0,0.,12.0,0.,12.0
1981-08-25 22:04:49.630 ,6,1,29.,12.0,0.,12.0,0.,12.0,0.,12.0
1981-08-25 22:05:01.630 ,6,1,30.,12.0,0.,12.0,0.,12.0,0.,12.0
1981-08-25 22:05:13.630 ,6,0,25.,12.0,0.,12.0,0.,12.0,0.,12.0
1981-08-25 22:05:25.630 ,6,0,29.,12.0,0.,12.0,0.,12.0,0.,12.0
1981-08-25 22:05:37.630 ,7,1,27.,12.0,0.,12.0,0.,12.0,0.,12.0
1981-08-25 22:05:49.630 ,7,1,11.,12.0,0.,12.0,0.,12.0,0.,12.0
1981-08-25 22:06:01.630 ,7,0,2.,12.0,0.,12.0,0.,12.0,0.,12.0
1981-08-25 22:06:13.630 ,7,0,0.,12.0,0.,12.0,0.,12.0,0.,12.0
1981-08-25 22:06:25.630 ,7,1,0.,12.0,0.,12.0,0.,12.0,0.,12.0
1981-08-25 22:06:37.630 ,7,1,0.,12.0,0.,12.0,0.,12.0,0.,12.0
1981-08-25 22:06:49.630 ,7,0,0.,12.0,0.,12.0,0.,12.0,0.,12.0
1981-08-25 22:07:01.630 ,7,0,0.,12.0,0.,12.0,0.,12.0,0.,12.0
1981-08-25 22:07:13.630 ,6,1,0.,12.0,0.,12.0,0.,12.0,0.,12.0
1981-08-25 22:07:25.630 ,6,1,13.,12.0,0.,12.0,0.,12.0,0.,12.0
1981-08-25 22:07:37.630 ,6,0,24.,12.0,0.,12.0,0.,12.0,0.,12.0
1981-08-25 22:07:49.630 ,6,0,33.,12.0,0.,12.0,0.,12.0,0.,12.0
1981-08-25 22:08:01.630 ,5,1,20.,12.0,0.,12.0,0.,12.0,0.,12.0
1981-08-25 22:08:13.630 ,5,1,30.,12.0,0.,12.0,0.,12.0,0.,12.0
1981-08-25 22:08:25.630 ,5,0,24.,12.0,0.,12.0,0.,12.0,0.,12.0
1981-08-25 22:08:37.630 ,5,0,27.,12.0,0.,12.0,0.,12.0,0.,12.0
1981-08-25 22:08:49.630 ,4,1,26.,12.0,0.,12.0,0.,12.0,0.,12.0
1981-08-25 22:09:01.630 ,4,1,27.,12.0,0.,12.0,0.,12.0,0.,12.0
1981-08-25 22:09:13.630 ,4,0,22.,12.0,0.,12.0,0.,12.0,0.,12.0
1981-08-25 22:09:25.630 ,4,0,22.,12.0,0.,12.0,0.,12.0,0.,12.0
1981-08-25 22:09:37.630 ,3,1,17.,12.0,0.,12.0,0.,12.0,0.,12.0
1981-08-25 22:09:49.630 ,3,1,26.,12.0,0.,12.0,0.,12.0,0.,12.0
1981-08-25 22:10:01.630 ,3,0,27.,12.0,0.,12.0,0.,12.0,0.,12.0
1981-08-25 22:10:13.630 ,3,0,31.,12.0,0.,12.0,0.,12.0,0.,12.0
1981-08-25 22:10:25.630 ,2,1,30.,12.0,0.,12.0,0.,12.0,0.,12.0
1981-08-25 22:10:37.630 ,2,1,34.,12.0,0.,12.0,0.,12.0,0.,12.0
1981-08-25 22:10:49.630 ,2,0,30.,12.0,0.,12.0,0.,12.0,0.,12.0
1981-08-25 22:11:01.630 ,2,0,24.,12.0,0.,12.0,0.,12.0,0.,12.0
1981-08-25 22:11:13.630 ,1,1,31.,12.0,0.,12.0,0.,12.0,0.,12.0
1981-08-25 22:11:25.630 ,1,1,30.,12.0,0.,12.0,0.,12.0,0.,12.0
1981-08-25 22:11:37.630 ,1,0,40.,12.0,0.,12.0,0.,12.0,0.,12.0
1981-08-25 22:11:49.630 ,1,0,25.,12.0,0.,12.0,0.,12.0,0.,12.0
1981-08-25 22:12:01.630 ,0,1,25.,12.0,0.,12.0,0.,12.0,0.,12.0
1981-08-25 22:12:13.630 ,0,1,21.,12.0,0.,12.0,0.,12.0,0.,12.0
1981-08-25 22:12:25.630 ,0,0,26.,12.0,0.,12.0,0.,12.0,0.,12.0
1981-08-25 22:12:37.630 ,0,0,19.,12.0,0.,12.0,0.,12.0,0.,12.0
1981-08-25 22:12:49.630 ,0,1,21.,12.0,0.,12.0,0.,12.0,0.,12.0
1981-08-25 22:13:01.630 ,0,1,28.,12.0,0.,12.0,0.,12.0,0.,12.0
1981-08-25 22:13:13.630 ,0,0,26.,12.0,0.,12.0,0.,12.0,0.,12.0
1981-08-25 22:13:25.630 ,0,0,13.,12.0,0.,12.0,0.,12.0,0.,12.0
1981-08-25 22:13:37.630 ,1,1,19.,12.0,0.,12.0,0.,12.0,0.,12.0
1981-08-25 22:13:49.630 ,1,1,26.,12.0,0.,12.0,0.,12.0,0.,12.0
1981-08-25 22:14:01.630 ,1,0,24.,12.0,0.,12.0,0.,12.0,0.,12.0
1981-08-25 22:14:13.630 ,1,0,20.,12.0,0.,12.0,0.,12.0,0.,12.0
1981-08-25 22:14:25.630 ,2,1,25.,12.0,0.,12.0,0.,12.0,0.,12.0
1981-08-25 22:14:37.630 ,2,1,26.,12.0,0.,12.0,0.,12.0,0.,12.0
1981-08-25 22:14:49.630 ,2,0,27.,12.0,0.,12.0,0.,12.0,0.,12.0
1981-08-25 22:15:01.630 ,2,0,27.,12.0,0.,12.0,0.,12.0,0.,12.0
1981-08-25 22:15:13.630 ,3,1,37.,12.0,0.,12.0,0.,12.0,0.,12.0
1981-08-25 22:15:25.630 ,3,1,33.,12.0,0.,12.0,0.,12.0,0.,12.0
1981-08-25 22:15:37.630 ,3,0,30.,12.0,0.,12.0,0.,12.0,0.,12.0
1981-08-25 22:15:49.630 ,3,0,26.,12.0,0.,12.0,0.,12.0,0.,12.0
1981-08-25 22:16:01.630 ,4,1,25.,12.0,0.,12.0,0.,12.0,0.,12.0
1981-08-25 22:16:13.630 ,4,1,21.,12.0,0.,12.0,0.,12.0,0.,12.0
1981-08-25 22:16:25.630 ,4,0,26.,12.0,0.,12.0,0.,12.0,0.,12.0